Weather History for Monroe, WI

Change the Weather History Date:

Monday, December 31, 2012

  Actual Average Record
Temperature  
Mean Temperature 23 °F -  
Max Temperature 32 °F -4 °F 51 °F (2004)
Min Temperature 12 °F -17 °F -17 °F (1968)
Degree Days  
Heating Degree Days 42    
Moisture  
Dew Point 17 °F    
Average Humidity 77    
Maximum Humidity 93    
Minimum Humidity 67    
Precipitation  
Precipitation 0.00 in - - ()
Sea Level Pressure  
Sea Level Pressure 30.02 in    
Wind  
Wind Speed 13 mph (WNW)    
Max Wind Speed 20 mph    
Max Gust Speed 28 mph    
Visibility 10 miles    
Events      
Averages and records for this station are not official NWS values.
T = Trace of Precipitation, MM = Missing Value Source: NWS Daily Summary

Daily Weather History Graph

Daily Weather History Graph

Search for Another Location

Airport:

Trip Planner

Search our weather history database for the weather conditions in past years. The results will help you decide how hot, cold, wet, or windy it might be!

Date:

Astronomy

Dec. 31, 2012 Rise Set
Actual Time 7:28 AM CST 4:35 PM CST
Civil Twilight 6:56 AM CST 5:07 PM CST
Nautical Twilight 6:20 AM CST 5:42 PM CST
Astronomical Twilight 5:46 AM CST 6:16 PM CST
Moon 8:10 PM CST (12/31) 9:05 AM CST (12/31)
Length of Visible Light 10h 10m
Length of Day
9h 06m
Waning Gibbous, 90% of the Moon is Illuminated
Dec 31
Waning Gibbous
Jan 4
Last Quarter
Jan 11
New
Jan 18
First Quarter
Jan 26
Full

Hourly Weather History & Observations

Time (CST) Temp. Windchill Dew Point Humidity Pressure Visibility Wind Dir Wind Speed Gust Speed Precip Events Conditions
12:15 AM 30.2 °F 18.9 °F 23.0 °F 75% 29.95 in 10.0 mi SSW 16.1 mph - N/A   Clear
12:35 AM 30.2 °F 18.5 °F 23.0 °F 75% 29.94 in 10.0 mi SSW 17.3 mph - N/A   Clear
12:55 AM 32.0 °F 20.8 °F 23.0 °F 69% 29.93 in 10.0 mi SSW 17.3 mph - N/A   Clear
1:15 AM 30.2 °F 19.8 °F 23.0 °F 75% 29.93 in 10.0 mi SW 13.8 mph - N/A   Clear
1:35 AM 32.0 °F 20.1 °F 23.0 °F 69% 29.93 in 10.0 mi SW 19.6 mph 24.2 mph N/A   Clear
1:55 AM 32.0 °F 20.1 °F 23.0 °F 69% 29.93 in 10.0 mi SW 19.6 mph 27.6 mph N/A   Clear
2:15 AM 32.0 °F 20.5 °F 23.0 °F 69% 29.93 in 10.0 mi SW 18.4 mph 24.2 mph N/A   Clear
2:35 AM 32.0 °F 21.2 °F 23.0 °F 69% 29.94 in 10.0 mi SW 16.1 mph - N/A   Clear
2:55 AM 32.0 °F 20.8 °F 23.0 °F 69% 29.95 in 10.0 mi SW 17.3 mph 23.0 mph N/A   Clear
3:15 AM 32.0 °F 20.1 °F 23.0 °F 69% 29.95 in 10.0 mi WSW 19.6 mph - N/A   Clear
3:35 AM 32.0 °F 20.5 °F 23.0 °F 69% 29.96 in 10.0 mi WSW 18.4 mph - N/A   Clear
3:55 AM 32.0 °F 20.5 °F 24.8 °F 75% 29.96 in 10.0 mi WSW 18.4 mph 23.0 mph N/A   Clear
4:15 AM 32.0 °F 20.8 °F 24.8 °F 75% 29.95 in 10.0 mi WSW 17.3 mph - N/A   Clear
4:35 AM 32.0 °F 21.2 °F 23.0 °F 69% 29.96 in 10.0 mi WSW 16.1 mph - N/A   Clear
4:55 AM 30.2 °F 19.3 °F 23.0 °F 75% 29.96 in 10.0 mi WSW 15.0 mph - N/A   Clear
5:15 AM 30.2 °F 18.9 °F 23.0 °F 75% 29.96 in 10.0 mi West 16.1 mph - N/A   Clear
5:35 AM 28.4 °F 16.2 °F 23.0 °F 80% 29.97 in 10.0 mi West 17.3 mph - N/A   Clear
5:55 AM 28.4 °F 17.0 °F 21.2 °F 74% 29.97 in 10.0 mi West 15.0 mph - N/A   Clear
6:15 AM 26.6 °F 15.2 °F 23.0 °F 86% 29.98 in 10.0 mi West 13.8 mph - N/A   Clear
6:35 AM 26.6 °F 13.8 °F 23.0 °F 86% 29.98 in 10.0 mi West 17.3 mph - N/A   Clear
6:55 AM 26.6 °F 15.2 °F 23.0 °F 86% 29.98 in 10.0 mi West 13.8 mph - N/A   Clear
7:15 AM 24.8 °F 14.0 °F 23.0 °F 93% 29.98 in 10.0 mi West 11.5 mph - N/A   Clear
7:35 AM 24.8 °F 15.3 °F 23.0 °F 93% 29.98 in 10.0 mi West 9.2 mph 16.1 mph N/A   Clear
7:55 AM 23.0 °F 11.1 °F 21.2 °F 93% 29.98 in 10.0 mi West 12.7 mph - N/A   Clear
8:15 AM 23.0 °F 11.7 °F 21.2 °F 93% 29.99 in 10.0 mi West 11.5 mph - N/A   Clear
8:35 AM 23.0 °F 10.6 °F 21.2 °F 93% 30.00 in 10.0 mi West 13.8 mph - N/A   Clear
8:55 AM 23.0 °F 11.7 °F 19.4 °F 86% 30.01 in 10.0 mi West 11.5 mph 16.1 mph N/A   Clear
9:15 AM 23.0 °F 11.7 °F 19.4 °F 86% 30.01 in 10.0 mi West 11.5 mph - N/A   Clear
9:35 AM 23.0 °F 13.1 °F 19.4 °F 86% 30.03 in 10.0 mi West 9.2 mph - N/A   Clear
9:55 AM 23.0 °F 11.1 °F 17.6 °F 80% 30.04 in 10.0 mi West 12.7 mph - N/A   Clear
10:15 AM 23.0 °F 11.7 °F 17.6 °F 80% 30.03 in 10.0 mi West 11.5 mph - N/A   Clear
10:35 AM 23.0 °F 12.4 °F 17.6 °F 80% 30.03 in 10.0 mi WNW 10.4 mph - N/A   Clear
10:55 AM 23.0 °F 12.4 °F 17.6 °F 80% 30.03 in 10.0 mi WNW 10.4 mph - N/A   Clear
11:15 AM 23.0 °F 11.7 °F 17.6 °F 80% 30.03 in 10.0 mi WNW 11.5 mph - N/A   Clear
11:35 AM 23.0 °F 14.7 °F 17.6 °F 80% 30.03 in 10.0 mi WNW 6.9 mph - N/A   Scattered Clouds
11:55 AM 23.0 °F 13.9 °F 17.6 °F 80% 30.03 in 10.0 mi West 8.1 mph - N/A   Scattered Clouds
12:15 PM 23.0 °F 11.1 °F 17.6 °F 80% 30.03 in 10.0 mi West 12.7 mph - N/A   Mostly Cloudy
12:35 PM 23.0 °F 12.4 °F 17.6 °F 80% 30.03 in 10.0 mi West 10.4 mph - N/A   Overcast
12:54 PM 23.0 °F 13.1 °F 15.8 °F 74% 30.02 in 10.0 mi WNW 9.2 mph - N/A   Overcast
12:55 PM 23.0 °F 13.1 °F 17.6 °F 80% 30.02 in 10.0 mi WNW 9.2 mph - N/A   Overcast
1:15 PM 23.0 °F 13.1 °F 17.6 °F 80% 30.01 in 10.0 mi WNW 9.2 mph - N/A   Overcast
1:35 PM 23.0 °F 14.7 °F 17.6 °F 80% 30.02 in 10.0 mi West 6.9 mph - N/A   Overcast
1:55 PM 23.0 °F 11.1 °F 17.6 °F 80% 30.03 in 10.0 mi West 12.7 mph - N/A   Overcast
2:15 PM 23.0 °F 11.7 °F 17.6 °F 80% 30.02 in 10.0 mi WNW 11.5 mph - N/A   Overcast
2:35 PM 23.0 °F 13.1 °F 17.6 °F 80% 30.02 in 10.0 mi WNW 9.2 mph - N/A   Overcast
2:55 PM 23.0 °F 11.1 °F 17.6 °F 80% 30.03 in 10.0 mi WNW 12.7 mph - N/A   Overcast
3:15 PM 23.0 °F 12.4 °F 17.6 °F 80% 30.04 in 10.0 mi WNW 10.4 mph - N/A   Overcast
3:35 PM 21.2 °F 8.9 °F 14.0 °F 74% 30.04 in 10.0 mi WNW 12.7 mph - N/A   Mostly Cloudy
3:55 PM 21.2 °F 12.6 °F 14.0 °F 74% 30.03 in 10.0 mi WNW 6.9 mph - N/A   Clear
4:15 PM 21.2 °F 13.6 °F 14.0 °F 74% 30.03 in 10.0 mi NW 5.8 mph - N/A   Clear
4:35 PM 19.4 °F 10.4 °F 14.0 °F 80% 30.05 in 10.0 mi NW 6.9 mph - N/A   Clear
5:15 PM 19.4 °F 12.8 °F 12.2 °F 74% 30.05 in 10.0 mi NW 4.6 mph - N/A   Clear
5:35 PM 19.4 °F 11.5 °F 12.2 °F 74% 30.06 in 10.0 mi WNW 5.8 mph - N/A   Clear
6:15 PM 19.4 °F 9.5 °F 12.2 °F 74% 30.07 in 10.0 mi NW 8.1 mph - N/A   Clear
6:35 PM 17.6 °F 9.3 °F 12.2 °F 79% 30.07 in 10.0 mi NNW 5.8 mph - N/A   Scattered Clouds
6:55 PM 17.6 °F 9.3 °F 10.4 °F 73% 30.08 in 10.0 mi NNW 5.8 mph - N/A   Scattered Clouds
7:15 PM 17.6 °F 8.2 °F 10.4 °F 73% 30.07 in 10.0 mi North 6.9 mph - N/A   Clear
7:35 PM 17.6 °F 7.3 °F 10.4 °F 73% 30.08 in 10.0 mi North 8.1 mph - N/A   Clear
7:55 PM 17.6 °F 6.4 °F 8.6 °F 68% 30.09 in 10.0 mi North 9.2 mph - N/A   Scattered Clouds
8:15 PM 17.6 °F 6.4 °F 8.6 °F 68% 30.09 in 10.0 mi North 9.2 mph - N/A   Scattered Clouds
8:35 PM 17.6 °F 7.3 °F 8.6 °F 68% 30.10 in 10.0 mi North 8.1 mph - N/A   Mostly Cloudy
8:55 PM 17.6 °F 7.3 °F 8.6 °F 68% 30.10 in 10.0 mi North 8.1 mph - N/A   Mostly Cloudy
9:15 PM 15.8 °F 7.2 °F 8.6 °F 73% 30.11 in 10.0 mi NNW 5.8 mph - N/A   Scattered Clouds
9:35 PM 15.8 °F 7.2 °F 8.6 °F 73% 30.11 in 10.0 mi NNW 5.8 mph - N/A   Scattered Clouds
9:55 PM 14.0 °F 3.9 °F 6.8 °F 73% 30.11 in 10.0 mi NNW 6.9 mph - N/A   Scattered Clouds
10:15 PM 14.0 °F 5.1 °F 6.8 °F 73% 30.12 in 10.0 mi NNW 5.8 mph - N/A   Mostly Cloudy
10:35 PM 14.0 °F 3.9 °F 6.8 °F 73% 30.12 in 10.0 mi NNW 6.9 mph - N/A   Mostly Cloudy
10:55 PM 14.0 °F 5.1 °F 6.8 °F 73% 30.13 in 10.0 mi NNW 5.8 mph - N/A   Overcast
11:15 PM 14.0 °F 2.9 °F 6.8 °F 73% 30.13 in 10.0 mi NNW 8.1 mph - N/A   Mostly Cloudy
11:35 PM 14.0 °F 2.9 °F 5.0 °F 67% 30.13 in 10.0 mi NW 8.1 mph - N/A   Overcast
11:55 PM 12.2 °F 0.7 °F 5.0 °F 73% 30.13 in 10.0 mi NW 8.1 mph - N/A   Scattered Clouds